Location: Gro�sch�nbrunn
(49.5760°N, 11.8868°E)
Time: 02:21:07
(UTC+00:00)

SPOT 1/Viking Rocket - Pass Details

Date: 18 September 2020
Orbit: 777 x 794 km, 98.5° (Epoch: 30 October)

Event Time Altitude Azimuth Distance (km) Brightness Sun altitude
Exits shadow 19:33:45 37° 74° (ENE) 1,211 4.2 -21.7°
Maximum altitude 19:34:05 37° 65° (ENE) 1,202 4.2 -21.7°
Drops below altitude 10° 19:38:49 10° 359° (N) 2,352 6.4 -22.4°
Sets 19:41:17 0° 352° (N) 3,282 7.4 -22.7°
